Tracking 34352 objects as of 8-Jun-2026
HD Live streaming from Space Station
objects crossing your sky now

STARLINK-1215

Track STARLINK-1215 now!
10-day predictions
STARLINK-1215 is classified as:


NORAD ID: 45225
Int'l Code: 2020-012AZ
Perigee: 465.8 km
Apogee: 468.7 km
Inclination: 53.2 °
Period: 93.8 minutes
Semi major axis: 6838 km
RCS: Unknown
Launch date: February 17, 2020
Source: United States (US)
Launch site: AIR FORCE EASTERN TEST RANGE (AFETR)
Your satellite tracking list
Your tracking list is empty




NASA's NSSDC Master Catalog

Two Line Element Set (TLE):
1 45225U 20012AZ  26159.08402848  .00053665  00000-0  15448-2 0  9999
2 45225  53.1556 297.3577 0002174 279.3686  80.7071 15.35268462349337
Source of the keplerian elements: AFSPC